CW8989 Weather Reports


Display with metric or nautical units.
time (UTC)temp
F
wind
direction
speed
MPH
gust
MPH
rain 1hr
in
rain 24hr
in
rain mn
in
humidity
%
barometer
mb
20260906123024 73 360 0.0 0.0 0.00 0.00 0.00 88 1011.8
20260906121550 71 360 0.0 0.0 0.00 0.00 0.00 89 1011.5
20260906120004 70 101 0.0 0.0 0.00 0.00 0.00 90 1011.5
20260906114541 69 93 0.0 0.0 0.00 0.00 0.00 89 1011.4
20260906113024 69 96 0.0 0.0 0.00 0.00 0.00 88 1011.4
20260906111620 69 97 0.0 0.0 0.00 0.00 0.00 89 1011.2
20260906110136 69 100 0.0 0.0 0.00 0.00 0.00 88 1011.2
20260906104606 69 93 0.0 0.0 0.00 0.00 0.00 88 1011.3
20260906104502 69 94 0.0 0.0 0.00 0.00 0.00 88 1011.4
20260906103043 69 92 0.0 0.0 0.00 0.00 0.00 88 1011.1
20260906101519 70 92 0.0 0.0 0.00 0.00 0.00 88 1011.1
20260906100156 70 92 0.0 0.0 0.00 0.00 0.00 88 1011.2
20260906094530 70 92 0.0 1.0 0.00 0.00 0.00 87 1011.0
20260906093015 70 92 0.0 2.0 0.00 0.00 0.00 88 1011.0
20260906091503 70 93 0.0 2.0 0.00 0.00 0.00 87 1010.7
20260906090142 70 91 0.0 0.0 0.00 0.00 0.00 87 1010.7
20260906084608 70 89 0.0 0.0 0.00 0.00 0.00 86 1010.5
20260906084505 70 88 0.0 0.0 0.00 0.00 0.00 86 1010.5
20260906083039 70 89 0.0 0.0 0.00 0.00 0.00 87 1010.4
20260906081549 70 89 0.0 0.0 0.00 0.00 0.00 87 1010.4
20260906074531 70 87 0.0 1.0 0.00 0.00 0.00 86 1010.6
20260906073034 71 87 0.0 0.0 0.00 0.00 0.00 86 1010.5
20260906071555 70 87 0.0 2.0 0.00 0.00 0.00 86 1010.5
20260906070138 71 86 0.0 0.0 0.00 0.00 0.00 85 1010.5
20260906064549 71 86 0.0 0.0 0.00 0.00 0.00 85 1010.6
20260906063029 71 87 0.0 0.0 0.00 0.00 0.00 84 1010.7
20260906061507 71 85 0.0 0.0 0.00 0.00 0.00 84 1010.9
20260906060152 71 86 0.0 0.0 0.00 0.00 0.00 83 1011.2
20260906054539 72 86 0.0 2.0 0.00 0.00 0.00 83 1011.3
20260906053044 72 86 0.0 0.0 0.00 0.00 0.00 83 1011.4
20260906051539 72 84 0.0 3.0 0.00 0.00 0.00 82 1011.5
20260906050141 72 84 0.0 0.0 0.00 0.00 0.00 81 1011.4
20260906044550 72 84 0.0 1.0 0.00 0.00 0.00 82 1011.3
20260906043040 72 84 0.0 0.0 0.00 0.00 0.00 82 1011.7
20260906041506 73 83 0.0 0.0 0.00 0.00 0.00 81 1011.9
20260906040142 73 83 0.0 1.0 0.00 0.00 0.00 81 1011.9
20260906034505 73 84 0.0 0.0 0.00 0.00 0.00 81 1011.9
20260906033046 73 84 0.0 3.0 0.00 0.00 0.00 80 1012.2
20260906031520 74 118 0.0 4.0 0.00 0.00 0.00 77 1012.1
20260906030156 75 122 2.0 7.0 0.00 0.00 0.00 74 1012.1
20260906024513 75 131 4.0 8.0 0.00 0.00 0.00 72 1011.8
20260906023106 77 360 0.0 0.0 0.00 0.00 0.00 69 1011.4
20260906021528 77 360 0.0 3.0 0.00 0.00 0.00 68 1011.2
20260906014540 78 360 0.0 2.0 0.00 0.00 0.00 66 1011.1
20260906013004 79 92 1.0 10.0 0.00 0.00 0.00 64 1011.4
20260906011552 81 105 10.0 16.0 0.00 0.00 0.00 61 1011.5
20260906004539 83 192 0.0 1.0 0.00 0.00 0.00 75 1010.2
20260906003016 84 226 0.0 3.0 0.00 0.00 0.00 73 1009.4
20260906001550 85 266 0.0 4.0 0.00 0.00 0.00 72 1009.5
20260906000128 85 220 0.0 4.0 0.00 0.00 0.00 71 1009.7
20260905234554 86 284 0.0 2.0 0.00 0.00 0.00 69 1010.0
20260905233023 87 248 0.0 3.0 0.00 0.00 0.00 68 1009.9
20260905231511 88 273 0.0 3.0 0.00 0.00 0.00 67 1009.7
20260905230024 89 296 0.0 3.0 0.00 0.00 0.00 66 1009.7
20260905224606 89 233 0.0 5.0 0.00 0.00 0.00 65 1009.7
20260905223038 90 273 0.0 6.0 0.00 0.00 0.00 64 1009.6
20260905221520 90 263 0.0 4.0 0.00 0.00 0.00 63 1009.4
20260905220149 90 296 1.0 7.0 0.00 0.00 0.00 63 1009.6
20260905214521 91 288 1.0 6.0 0.00 0.00 0.00 63 1009.5
20260905213023 91 288 2.0 8.0 0.00 0.00 0.00 63 1009.6
20260905211513 91 236 3.0 9.0 0.00 0.00 0.00 62 1009.8
20260905210153 92 194 3.0 11.0 0.00 0.00 0.00 61 1009.9
20260905204519 93 194 2.0 9.0 0.00 0.00 0.00 60 1009.8
20260905203059 92 251 1.0 5.0 0.00 0.00 0.00 60 1009.8
20260905201536 92 181 2.0 6.0 0.00 0.00 0.00 59 1010.1
20260905194531 98 102 4.0 9.0 0.00 0.00 0.00 47 1010.3
20260905193008 97 101 4.0 8.0 0.00 0.00 0.00 48 1010.4
20260905191546 96 55 1.0 5.0 0.00 0.00 0.00 50 1010.6
20260905190014 95 23 1.0 9.0 0.00 0.00 0.00 49 1010.9
20260905184555 96 90 4.0 7.0 0.00 0.00 0.00 50 1011.1
20260905183019 95 41 2.0 6.0 0.00 0.00 0.00 51 1011.3
20260905181602 95 355 0.0 4.0 0.00 0.00 0.00 52 1011.6
20260905180020 92 346 1.0 6.0 0.00 0.00 0.00 53 1011.9
20260905174551 94 9 2.0 8.0 0.00 0.00 0.00 52 1011.9
20260905173030 95 341 1.0 10.0 0.00 0.00 0.00 52 1012.2
20260905171506 93 28 0.0 5.0 0.00 0.00 0.00 53 1012.4
20260905170142 93 81 2.0 8.0 0.00 0.00 0.00 53 1012.6
20260905164506 93 355 3.0 10.0 0.00 0.00 0.00 53 1012.9
20260905163043 94 355 2.0 9.0 0.00 0.00 0.00 53 1013.1
20260905161520 94 33 4.0 10.0 0.00 0.00 0.00 53 1013.2
20260905160155 94 30 6.0 11.0 0.00 0.00 0.00 53 1013.0
20260905154519 93 34 5.0 10.0 0.00 0.00 0.00 55 1012.8
20260905153100 93 98 3.0 8.0 0.00 0.00 0.00 56 1012.8
20260905151537 92 360 1.0 6.0 0.00 0.00 0.00 57 1012.9
20260905144532 91 360 4.0 8.0 0.00 0.00 0.00 59 1013.1
20260905143018 88 360 0.0 0.0 0.00 0.00 0.00 65 1013.2
20260905141553 88 360 0.0 0.0 0.00 0.00 0.00 64 1013.3
20260905140010 86 36 0.0 0.0 0.00 0.00 0.00 68 1013.4
20260905134539 84 88 0.0 0.0 0.00 0.00 0.00 72 1013.4
20260905133027 82 117 0.0 0.0 0.00 0.00 0.00 76 1013.5
20260905131606 80 114 0.0 0.0 0.00 0.00 0.00 79 1013.5
20260905130131 77 114 0.0 0.0 0.00 0.00 0.00 85 1013.5
20260905124551 74 115 0.0 0.0 0.00 0.00 0.00 90 1013.6
20260905123029 72 115 0.0 0.0 0.00 0.00 0.00 91 1013.6